Location: Possagno
(45.8500°N, 11.8667°E)
Time: 09:51:36
(UTC+00:00)

STARLINK-2672 - Pass Details

Date: 30 July 2021
Orbit: 546 x 548 km, 53.1° (Epoch: 22 September)

Event Time Altitude Azimuth Distance (km) Brightness Sun altitude
Rises 19:42:58 0° 298° (WNW) 2,716 9.2 -9.4°
Reaches altitude 10° 19:45:17 10° 292° (WNW) 1,820 7.6 -9.7°
Maximum altitude 19:49:12 43° 221° (SW) 777 4.4 -10.2°
Enters shadow 19:52:32 13° 152° (SSE) 1,600 5.4 -10.7°
